This is the latest recevied weather packets stored in our database for station/object VK5GR-12. If no packets are shown the sender has not sent any weather packets the latest 10 day(s).
| Time | Temp. | Humidity | Pressure | Rain* | Wind** | Luminosity | Snow |
|---|---|---|---|---|---|---|---|
| 1778112476 | 13.33° C | 66% | 1030.2 hPa | 0 mm | - | 126 W/m² | - |
| 1778111576 | 12.78° C | 67% | 1030.1 hPa | 0 mm | - | 255 W/m² | - |
| 1778110674 | 12.22° C | 73% | 1030.2 hPa | 0 mm | - | 155 W/m² | - |
| 1778109774 | 11.67° C | 75% | 1030.1 hPa | 0 mm | - | 63 W/m² | - |
| 1778108872 | 11.67° C | 74% | 1029.9 hPa | 0 mm | - | 70 W/m² | - |
| 1778107968 | 10.56° C | 77% | 1029.7 hPa | 0 mm | - | 89 W/m² | - |
| 1778107064 | 10° C | 82% | 1029.7 hPa | 0 mm | - | 49 W/m² | - |
| 1778106158 | 8.89° C | 83% | 1029.4 hPa | 0 mm | - | 30 W/m² | - |
| 1778105257 | 8.89° C | 83% | 1029.2 hPa | 0 mm | - | 25 W/m² | - |
| 1778104356 | 8.33° C | 83% | 1029 hPa | 0 mm | - | 17 W/m² | - |
| 1778103454 | 8.89° C | 83% | 1028.8 hPa | 0 mm | - | 8 W/m² | - |
| 1778102550 | 8.89° C | 84% | 1028.6 hPa | 0 mm | - | 2 W/m² | - |
| 1778101645 | 8.33° C | 85% | 1028.4 hPa | 0 mm | - | 0 W/m² | - |
| 1778100740 | 8.89° C | 84% | 1028.3 hPa | 0 mm | - | 0 W/m² | - |
| 1778099839 | 8.89° C | 84% | 1028.1 hPa | 0 mm | - | 0 W/m² | - |
| 1778098935 | 8.89° C | 84% | 1028.1 hPa | 0 mm | - | 0 W/m² | - |
| 1778098031 | 8.89° C | 82% | 1028 hPa | 0 mm | - | 0 W/m² | - |
| 1778097127 | 9.44° C | 80% | 1028 hPa | 0 mm | - | 0 W/m² | - |
| 1778096224 | 10° C | 79% | 1027.7 hPa | 0 mm | - | 0 W/m² | - |
| 1778095320 | 10° C | 78% | 1027.7 hPa | 0 mm | - | 0 W/m² | - |
| 1778094416 | 10° C | 76% | 1027.4 hPa | 0 mm | - | 0 W/m² | - |
| 1778093512 | 10.56° C | 74% | 1027.2 hPa | 0 mm | - | 0 W/m² | - |
| 1778092609 | 11.11° C | 72% | 1027 hPa | 0 mm | - | 0 W/m² | - |
| 1778091705 | 11.11° C | 71% | 1027.1 hPa | 0 mm | - | 0 W/m² | - |
| 1778090803 | 11.11° C | 70% | 1027 hPa | 0 mm | - | 0 W/m² | - |
* Rain latest hour (hover to see other rain measurements)
** Current wind speed in m/s (hover to see current wind gust speed)